Regional Weather Roundup
Issued by NWS

Home | Current Version | Previous Version | Graphics & Text | Print | Product List | Glossary On
Versions: 1 2 3 4 5 6 7 8 9 10 11 12 13 14 15 16 17 18 19 20 21 22 23 24 25 26 27 28 29 30 31 32 33 34 35 36 37 38 39 40 41 42 43 44 45 46 47 48 49 50
052
ASUS44 KLIX 310505
RWRLA
LOUISIANA WEATHER ROUNDUP
NATIONAL WEATHER SERVICE NEW ORLEANS LA
1200 AM CDT THU JUL 31 2014

NOTE: "FAIR" INDICATES FEW OR NO CLOUDS BELOW 12,000 FEET WITH NO
      SIGNIFICANT WEATHER AND/OR OBSTRUCTIONS TO VISIBILITY.
      SKY/WX - SKY CONDITION AND SIGNIFICANT WEATHER.
      TMP - AIR TEMPERATURE.    DP   - DEWPOINT TEMPERATURE.
      RH  - RELATIVE HUMIDITY.  PRES - PRESSURE.
      HX  - HEAT INDEX.         WCI  - WIND CHILL INDEX.

*  THESE STATIONS ARE NOT NWS OR FAA STATIONS AND ARE NOT UNDER
   NWS QUALITY CONTROL.

LAZ040-048-061>063-065-066-069-310600-
SOUTHEAST LOUISIANA

CITY           SKY/WX    TMP DP  RH WIND       PRES   REMARKS
N.O. AUDUBON     N/A     78  61  55 MISG        N/A
N.O. INTL ARPT PTCLDY    79  60  52 E5        30.02S
N.O. LAKEFRONT CLEAR     82  61  48 NE10      30.03S
N.O. DOWNTOWN* FAIR      81  59  47 NE5       30.03S
SLIDELL        CLEAR     69  65  86 N3        30.02S
BATON ROUGE    CLEAR     72  64  76 NE5       30.03S
BOOTHVILLE     CLEAR     77  69  76 SE3       30.02F
BELLE CHASSE   CLEAR     69  65  86 CALM      30.02S
BOGALUSA*        N/A     69  64  86 CALM      30.05S
GALLIANO*      NOT AVBL
NEW ROADS*     FAIR      70  67  88 NE3       30.03S
GONZALES*      FAIR      69  69 100 CALM      30.02F
HAMMOND*       CLEAR     70  63  78 CALM      30.05S
HOUMA*         CLEAR     70  65  83 CALM      30.03R
PORT FOURCHON* CLEAR     81  66  61 E5        30.04S

$$

LAZ041-044-053-054-310600-
SOUTHWEST LOUISIANA

CITY           SKY/WX    TMP DP  RH WIND       PRES   REMARKS
LAKE CHARLES   CLEAR     76  66  71 E6        30.01R
LAFAYETTE      CLEAR     74  67  78 NE5       30.02S
PATTERSON      CLEAR     73  68  83 NE5       30.06S
SALT POINT       N/A     77  70  79 CALM      30.01S
NEW IBERIA     CLEAR     76  66  71 E6        30.02F
CHENAULT AIRPK CLEAR     74  65  74 E6        30.02R

$$

LAZ027-028-310600-
CENTRAL LOUISIANA

CITY           SKY/WX    TMP DP  RH WIND       PRES   REMARKS
FORT POLK      PTCLDY    75  64  68 E6        30.02R
ALEXANDRIA INT PTCLDY    76  64  66 E6        30.01S
ALEXANDRIA     PTCLDY    71  66  84 CALM      30.04R

$$

LAZ001-002-310600-
NORTHWEST LOUISIANA

CITY           SKY/WX    TMP DP  RH WIND       PRES   REMARKS
SHREVEPORT     MOCLDY    76  64  66 E9        30.01R
BARKSDALE AFB  CLOUDY    74  65  73 E8        30.02R
DTN SHREVEPORT MOCLDY    74  64  71 E7        30.02R

$$

LAZ014-016-310600-
NORTHEAST LOUISIANA

CITY           SKY/WX    TMP DP  RH WIND       PRES   REMARKS
MONROE         CLOUDY    73  64  73 E3        30.05S
TALLULAH       MOCLDY    70  66  87 CALM      30.05S

$$




USA.gov is the U.S. government's official web portal to all federal, state and local government web resources and services.